Total_Precipitation_Accumulation
0.03 0.02 0.02 0.03 0.03 0.03 0.03 0.04 0.04 0.09 0.24 0.33 0.50 0.61 0.54 0.43 0.37 0.37 0.36 0.33 0.31 0.29 0.25 0.19 0.15 0.13 0.11 0.11 0.09 0.07 0.06 0.06 0.06 0.06 0.07 0.08 0.10 0.10 0.10 0.10 0.09 0.09 0.08 0.07
0.03 0.02 0.02 0.03 0.03 0.04 0.04 0.05 0.07 0.17 0.37 0.50 0.52 0.51 0.50 0.43 0.36 0.38 0.45 0.48 0.45 0.35 0.26 0.19 0.17 0.17 0.16 0.15 0.13 0.11 0.10 0.11 0.12 0.12 0.13 0.14 0.14 0.14 0.14 0.12 0.11 0.07 0.05 0.03
0.04 0.03 0.04 0.07 0.06 0.05 0.06 0.07 0.10 0.20 0.33 0.34 0.39 0.41 0.40 0.38 0.39 0.44 0.49 0.47 0.40 0.31 0.25 0.24 0.25 0.25 0.25 0.23 0.21 0.20 0.19 0.18 0.18 0.17 0.17 0.17 0.15 0.13 0.11 0.09 0.06 0.05 0.04 0.03
0.04 0.05 0.09 0.10 0.05 0.05 0.06 0.08 0.09 0.13 0.15 0.19 0.25 0.28 0.29 0.30 0.35 0.39 0.42 0.40 0.37 0.32 0.30 0.32 0.33 0.32 0.30 0.27 0.24 0.23 0.23 0.22 0.21 0.19 0.17 0.14 0.11 0.09 0.07 0.05 0.05 0.04 0.03 0.03
0.09 0.12 0.13 0.12 0.06 0.04 0.07 0.10 0.09 0.11 0.13 0.15 0.16 0.20 0.22 0.23 0.24 0.27 0.31 0.30 0.29 0.30 0.35 0.39 0.38 0.35 0.31 0.29 0.27 0.26 0.24 0.20 0.16 0.12 0.09 0.07 0.06 0.05 0.04 0.04 0.04 0.03 0.02 0.03
0.17 0.25 0.29 0.28 0.10 0.04 0.08 0.17 0.11 0.10 0.11 0.13 0.17 0.24 0.21 0.17 0.16 0.16 0.17 0.21 0.28 0.36 0.41 0.42 0.38 0.32 0.29 0.27 0.23 0.19 0.14 0.10 0.07 0.04 0.04 0.03 0.03 0.03 0.04 0.04 0.03 0.03 0.03 0.04
0.28 0.36 0.39 0.18 0.08 0.08 0.22 0.31 0.25 0.19 0.18 0.21 0.25 0.26 0.20 0.13 0.12 0.12 0.17 0.26 0.33 0.38 0.39 0.35 0.28 0.22 0.19 0.16 0.13 0.10 0.07 0.04 0.03 0.02 0.01 0.02 0.02 0.04 0.05 0.05 0.05 0.04 0.05 0.05
0.34 0.44 0.51 0.18 0.12 0.21 0.26 0.22 0.24 0.22 0.19 0.19 0.19 0.16 0.13 0.11 0.12 0.16 0.25 0.34 0.37 0.37 0.33 0.25 0.18 0.15 0.13 0.11 0.07 0.05 0.05 0.04 0.03 0.02 0.01 0.01 0.04 0.06 0.06 0.07 0.06 0.05 0.05 0.05
0.43 0.46 0.32 0.14 0.11 0.12 0.15 0.19 0.19 0.18 0.17 0.18 0.21 0.21 0.20 0.20 0.24 0.30 0.35 0.37 0.34 0.28 0.22 0.15 0.10 0.09 0.08 0.06 0.04 0.04 0.06 0.05 0.03 0.03 0.02 0.02 0.05 0.07 0.07 0.08 0.06 0.05 0.05 0.05
0.38 0.36 0.25 0.16 0.11 0.09 0.11 0.16 0.18 0.20 0.24 0.28 0.32 0.33 0.31 0.31 0.33 0.34 0.32 0.26 0.19 0.14 0.10 0.06 0.04 0.03 0.03 0.03 0.02 0.04 0.05 0.04 0.04 0.04 0.05 0.05 0.06 0.06 0.07 0.07 0.05 0.04 0.06 0.06
0.59 0.53 0.39 0.23 0.16 0.16 0.17 0.21 0.27 0.33 0.35 0.38 0.36 0.33 0.31 0.30 0.28 0.22 0.16 0.11 0.08 0.06 0.04 0.02 0.01 0.01 0.01 0.01 0.02 0.04 0.04 0.03 0.04 0.04 0.04 0.07 0.07 0.04 0.03 0.04 0.01 0.03 0.05 0.06
0.91 0.68 0.55 0.42 0.33 0.35 0.35 0.34 0.35 0.34 0.33 0.32 0.28 0.23 0.21 0.19 0.15 0.11 0.08 0.06 0.06 0.04 0.02 0.01 0.00 0.00 0.00 0.00 0.01 0.03 0.06 0.05 0.03 0.02 0.03 0.04 0.07 0.08 0.03 0.01 0.00 0.01 0.03 0.05
0.73 0.58 0.52 0.51 0.48 0.47 0.41 0.31 0.26 0.22 0.19 0.20 0.19 0.15 0.13 0.10 0.07 0.06 0.04 0.04 0.04 0.02 0.01 0.00 0.00 0.00 0.00 0.00 0.00 0.01 0.04 0.04 0.02 0.01 0.02 0.02 0.04 0.09 0.12 0.07 0.02 0.02 0.02 0.03
0.49 0.47 0.49 0.39 0.29 0.22 0.15 0.11 0.12 0.15 0.13 0.10 0.09 0.09 0.07 0.04 0.03 0.03 0.02 0.02 0.01 0.01 0.00 0.00 0.00 0.00 0.00 0.00 0.01 0.01 0.02 0.02 0.02 0.02 0.01 0.02 0.03 0.04 0.08 0.12 0.12 0.10 0.06 0.03
0.28 0.24 0.18 0.11 0.07 0.07 0.06 0.06 0.08 0.11 0.10 0.07 0.05 0.05 0.03 0.03 0.03 0.02 0.01 0.00 0.00 0.00 0.00 0.00 0.00 0.00 0.00 0.00 0.01 0.01 0.01 0.02 0.02 0.01 0.01 0.01 0.02 0.02 0.04 0.08 0.10 0.10 0.08 0.05
0.10 0.07 0.05 0.05 0.05 0.05 0.06 0.06 0.06 0.07 0.06 0.06 0.05 0.04 0.03 0.02 0.01 0.01 0.00 0.00 0.00 0.00 0.00 0.00 0.00 0.00 0.00 0.00 0.01 0.01 0.01 0.00 0.00 0.01 0.01 0.01 0.01 0.02 0.04 0.07 0.08 0.08 0.08 0.06
0.05 0.04 0.03 0.03 0.04 0.04 0.04 0.04 0.03 0.03 0.04 0.05 0.03 0.02 0.01 0.00 0.01 0.01 0.00 0.00 0.00 0.00 0.00 0.00 0.00 0.00 0.00 0.00 0.01 0.01 0.01 0.01 0.00 0.00 0.00 0.00 0.01 0.01 0.02 0.05 0.06 0.07 0.07 0.08
0.02 0.02 0.02 0.01 0.02 0.02 0.02 0.02 0.02 0.02 0.02 0.01 0.01 0.00 0.00 0.00 0.01 0.00 0.00 0.00 0.00 0.00 0.00 0.00 0.00 0.00 0.00 0.00 0.00 0.00 0.01 0.01 0.00 0.00 0.00 0.00 0.00 0.00 0.01 0.02 0.03 0.05 0.07 0.08
0.01 0.01 0.01 0.01 0.01 0.01 0.01 0.01 0.01 0.00 0.00 0.00 0.00 0.00 0.00 0.00 0.00 0.00 0.00 0.00 0.00 0.00 0.00 0.00 0.00 0.00 0.00 0.00 0.00 0.00 0.00 0.01 0.01 0.00 0.00 0.00 0.00 0.01 0.01 0.01 0.02 0.03 0.05 0.07
0.01 0.02 0.01 0.00 0.00 0.00 0.00 0.00 0.00 0.00 0.00 0.00 0.00 0.00 0.00 0.00 0.00 0.00 0.00 0.00 0.00 0.00 0.00 0.00 0.00 0.00 0.00 0.00 0.00 0.00 0.00 0.00 0.00 0.00 0.00 0.00 0.00 0.00 0.00 0.01 0.01 0.01 0.03 0.05
0.02 0.02 0.02 0.00 0.00 0.00 0.00 0.00 0.01 0.01 0.00 0.00 0.00 0.00 0.00 0.00 0.00 0.00 0.00 0.00 0.00 0.00 0.00 0.00 0.00 0.00 0.00 0.00 0.00 0.00 0.00 0.00 0.00 0.00 0.00 0.00 0.00 0.00 0.00 0.01 0.01 0.01 0.02 0.03
0.03 0.04 0.02 0.01 0.01 0.01 0.01 0.01 0.00 0.00 0.00 0.00 0.00 0.00 0.00 0.00 0.00 0.00 0.00 0.00 0.00 0.00 0.00 0.00 0.00 0.00 0.00 0.00 0.00 0.00 0.00 0.00 0.00 0.00 0.00 0.00 0.00 0.00 0.00 0.00 0.01 0.01 0.01 0.02
0.06 0.04 0.03 0.02 0.02 0.01 0.01 0.01 0.00 0.00 0.00 0.00 0.00 0.00 0.00 0.00 0.00 0.00 0.00 0.00 0.00 0.00 0.00 0.00 0.00 0.00 0.00 0.00 0.00 0.00 0.00 0.00 0.00 0.00 0.00 0.00 0.00 0.00 0.00 0.00 0.00 0.01 0.01 0.01
0.10 0.08 0.05 0.03 0.02 0.02 0.02 0.01 0.00 0.00 0.00 0.00 0.00 0.00 0.00 0.00 0.00 0.00 0.00 0.00 0.00 0.00 0.00 0.00 0.00 0.00 0.00 0.00 0.00 0.00 0.00 0.00 0.00 0.00 0.00 0.00 0.00 0.00 0.00 0.00 0.00 0.00 0.00 0.00
0.14 0.10 0.06 0.05 0.05 0.04 0.02 0.01 0.00 0.00 0.00 0.00 0.00 0.00 0.00 0.00 0.00 0.00 0.00 0.00 0.00 0.00 0.00 0.00 0.00 0.00 0.00 0.00 0.00 0.00 0.00 0.00 0.00 0.00 0.00 0.00 0.00 0.00 0.00 0.00 0.00 0.00 0.00 0.00
0.20 0.17 0.13 0.09 0.05 0.02 0.01 0.00 0.00 0.00 0.00 0.00 0.00 0.00 0.00 0.00 0.00 0.00 0.00 0.00 0.00 0.00 0.00 0.00 0.00 0.00 0.00 0.00 0.00 0.00 0.00 0.00 0.00 0.00 0.00 0.00 0.00 0.00 0.00 0.00 0.00 0.00 0.00 0.00
0.25 0.21 0.16 0.10 0.04 0.01 0.00 0.00 0.00 0.00 0.00 0.00 0.00 0.00 0.00 0.00 0.00 0.00 0.00 0.00 0.00 0.00 0.00 0.00 0.00 0.00 0.00 0.00 0.00 0.00 0.00 0.00 0.00 0.00 0.00 0.00 0.00 0.00 0.00 0.00 0.00 0.00 0.00 0.00